651 Weather Reports


time (UTC)temp
C
wind
direction
speed
KPH
gust
KPH
rain 1hr
cm
rain 24hr
cm
rain mn
cm
humidity
%
barometer
mb
20260508084558 18 0 0.0 0.0 0.00 0.00 0.00 74 1014.4
20260508083102 20 0 0.0 0.0 0.00 0.00 0.00 73 1014.2
20260508081631 20 0 0.0 0.0 0.00 0.00 0.00 73 1014.0
20260508080059 20 0 0.0 0.0 0.00 0.00 0.00 71 1013.8
20260508074600 20 0 0.0 0.0 0.00 0.00 0.00 72 1013.7
20260508073059 20 0 0.0 0.0 0.00 0.00 0.00 71 1013.4
20260508071601 20 0 0.0 0.0 0.00 0.00 0.00 72 1013.4
20260508070108 19 0 0.0 0.0 0.00 0.00 0.00 72 1013.4
20260508064607 18 0 0.0 0.0 0.00 0.00 0.00 73 1013.3
20260508063101 18 0 0.0 0.0 0.00 0.00 0.00 73 1013.3
20260508061605 18 0 0.0 0.0 0.00 0.00 0.00 73 1013.0
20260508060105 17 0 0.0 0.0 0.00 0.00 0.00 73 1012.7
20260508054601 17 0 0.0 0.0 0.00 0.00 0.00 73 1012.6
20260508053104 16 0 0.0 0.0 0.00 0.00 0.00 76 1012.6
20260508051601 16 0 0.0 0.0 0.00 0.00 0.00 79 1012.5
20260508044608 15 0 0.0 0.0 0.00 0.00 0.00 82 1012.2
20260508043112 15 0 0.0 0.0 0.00 0.00 0.00 82 1012.0
20260508041601 15 0 0.0 0.0 0.00 0.00 0.00 84 1012.0
20260508040104 15 0 0.0 0.0 0.00 0.00 0.00 85 1011.9
20260508034559 15 0 0.0 0.0 0.00 0.00 0.00 85 1011.7
20260508033059 15 0 0.0 0.0 0.00 0.00 0.00 83 1011.6
20260508031558 15 0 0.0 0.0 0.00 0.00 0.00 81 1011.4
20260508030104 15 0 0.0 0.0 0.00 0.00 0.00 77 1011.2
20260508024601 15 0 0.0 0.0 0.00 0.00 0.00 77 1011.3
20260508023101 15 0 0.0 0.0 0.00 0.00 0.00 75 1010.9
20260508021558 16 0 0.0 0.0 0.00 0.00 0.00 74 1011.1
20260508014600 16 0 0.0 0.0 0.00 0.00 0.00 74 1011.1
20260508013100 16 0 0.0 0.0 0.00 0.00 0.00 74 1011.1
20260508011609 16 0 0.0 0.0 0.00 0.00 0.00 73 1011.0
20260508010100 16 0 0.0 0.0 0.00 0.00 0.00 74 1010.9
20260508004601 16 0 0.0 0.0 0.00 0.00 0.00 76 1010.9
20260508003102 16 0 0.0 0.0 0.00 0.00 0.00 75 1011.0
20260508001600 16 0 0.0 0.0 0.00 0.00 0.00 74 1011.3
20260508000057 16 0 0.0 0.0 0.00 0.00 0.00 74 1011.4
20260507234605 16 0 0.0 0.0 0.00 0.00 0.00 73 1011.6
20260507233101 16 0 0.0 0.0 0.00 0.00 0.00 74 1011.7
20260507231606 15 0 0.0 0.0 0.00 0.00 0.00 76 1012.1
20260507230101 15 0 0.0 0.0 0.00 0.00 0.00 78 1012.4
20260507224602 15 0 0.0 0.0 0.00 0.00 0.00 79 1012.8
20260507223108 16 0 0.0 0.0 0.00 0.00 0.00 77 1012.9
20260507221559 16 0 0.0 0.0 0.00 0.00 0.00 74 1013.0
20260507220104 16 0 0.0 0.0 0.00 0.00 0.00 73 1012.2
20260507214601 16 0 0.0 0.0 0.00 0.00 0.00 74 1011.9
20260507213105 16 0 0.0 0.0 0.00 0.00 0.00 74 1011.8
20260507211559 16 0 0.0 0.0 0.00 0.00 0.00 73 1011.7
20260507210100 16 0 0.0 0.0 0.00 0.00 0.00 72 1012.0
20260507204606 16 0 0.0 0.0 0.00 0.00 0.00 73 1012.1
20260507203108 16 0 0.0 0.0 0.00 0.00 0.00 73 1012.3
20260507201605 16 0 0.0 0.0 0.00 0.00 0.00 71 1012.1
20260507194600 16 0 0.0 0.0 0.00 0.00 0.00 70 1011.9
20260507193103 16 0 0.0 0.0 0.00 0.00 0.00 71 1011.6
20260507191600 16 0 0.0 0.0 0.00 0.00 0.00 73 1011.4
20260507190100 16 0 0.0 0.0 0.00 0.00 0.00 73 1011.3
20260507184558 16 0 0.0 0.0 0.00 0.00 0.00 74 1011.1
20260507183110 16 0 0.0 0.0 0.00 0.00 0.00 73 1011.0
20260507181608 16 0 0.0 0.0 0.00 0.00 0.00 73 1011.1
20260507180115 16 0 0.0 0.0 0.00 0.00 0.00 73 1010.9
20260507174608 16 0 0.0 0.0 0.00 0.00 0.00 72 1010.6
20260507173103 17 0 0.0 0.0 0.00 0.00 0.00 71 1010.7
20260507171613 17 0 0.0 0.0 0.00 0.00 0.00 68 1010.8
20260507170100 17 0 0.0 0.0 0.00 0.00 0.00 68 1010.9
20260507164613 17 0 0.0 0.0 0.00 0.00 0.00 68 1011.0
20260507163059 17 0 0.0 0.0 0.00 0.00 0.00 69 1010.9
20260507161613 18 0 0.0 0.0 0.00 0.00 0.00 67 1010.8
20260507160101 19 0 0.0 0.0 0.00 0.00 0.00 62 1010.8
20260507154601 19 0 0.0 0.0 0.00 0.00 0.00 58 1011.1
20260507153058 20 0 0.0 0.0 0.00 0.00 0.00 59 1011.1
20260507151601 19 0 0.0 11.3 0.00 0.00 0.00 65 1010.9
20260507150106 20 0 0.0 8.0 0.00 0.00 0.00 62 1011.0
20260507144559 20 0 0.0 6.4 0.00 0.00 0.00 62 1010.8
20260507143107 20 0 1.6 12.9 0.00 0.00 0.00 62 1010.8
20260507141602 20 0 0.0 11.3 0.00 0.00 0.00 62 1010.8
20260507140100 20 0 1.6 19.3 0.00 0.00 0.00 61 1010.9
20260507134559 20 0 0.0 11.3 0.00 0.00 0.00 60 1010.9
20260507133101 20 0 0.0 9.7 0.00 0.00 0.00 60 1011.1
20260507131622 20 53 0.0 14.5 0.00 0.00 0.00 60 1011.2
20260507130104 20 0 1.6 11.3 0.00 0.00 0.00 58 1011.2
20260507124601 21 0 0.0 20.9 0.00 0.00 0.00 55 1011.5
20260507123107 21 0 0.0 17.7 0.00 0.00 0.00 54 1011.5
20260507121609 21 0 0.0 14.5 0.00 0.00 0.00 53 1011.4
20260507120058 21 113 0.0 19.3 0.00 0.00 0.00 51 1011.2
20260507114602 21 0 4.8 22.5 0.00 0.00 0.00 51 1011.1
20260507113103 21 0 1.6 16.1 0.00 0.00 0.00 51 1011.2
20260507111601 21 111 1.6 16.1 0.00 0.00 0.00 49 1011.0
20260507110120 21 121 1.6 20.9 0.00 0.00 0.00 46 1011.1
20260507104559 21 42 1.6 22.5 0.00 0.00 0.00 45 1011.5
20260507103100 21 94 1.6 20.9 0.00 0.00 0.00 42 1011.5
20260507101602 21 202 6.4 29.0 0.00 0.00 0.00 40 1011.5
20260507100100 21 188 3.2 29.0 0.00 0.00 0.00 39 1011.6
20260507094619 21 131 3.2 24.1 0.00 0.00 0.00 39 1011.8
20260507093106 20 151 6.4 29.0 0.00 0.00 0.00 39 1011.8
20260507091641 20 78 9.7 27.4 0.00 0.00 0.00 39 1012.1
20260507090107 20 184 3.2 19.3 0.00 0.00 0.00 41 1012.1